Location: Borealis Mine
(38.3824°N, 118.7610°W)
Time: 17:49:27
(UTC+00:00)

Meteor 1-31 Rocket - Pass Details

Date: 18 September 2020
Orbit: 521 x 546 km, 97.6° (Epoch: 19 October)

Event Time Altitude Azimuth Distance (km) Brightness Sun altitude
Rises 12:10:06 0° 22° (NNE) 2,662 6.9 -18.1°
Reaches altitude 10° 12:12:21 10° 31° (NNE) 1,771 6.1 -17.7°
Maximum altitude 12:15:52 34° 98° (E) 884 4.4 -17.0°
Drops below altitude 10° 12:19:21 10° 164° (SSE) 1,770 5.4 -16.4°
Sets 12:21:36 0° 174° (S) 2,659 6.2 -15.9°
